Weather History for KAMA - February, 2014

Change the Weather History Date:

Thursday, February 20, 2014

  Actual Average Record
Temperature  
Mean Temperature 44 °F 41 °F  
Max Temperature 60 °F 55 °F 83 °F (1981)
Min Temperature 28 °F 27 °F 4 °F (1955)
Degree Days  
Heating Degree Days 21 24  
Month to date heating degree days 577 512  
Since 1 July heating degree days 3175 3097  
Cooling Degree Days 0 0  
Month to date cooling degree days 0 0  
Year to date cooling degree days 0 0  
Moisture  
Dew Point 18 °F    
Average Humidity 46    
Maximum Humidity 75    
Minimum Humidity 16    
Precipitation  
Precipitation 0.00 in 0.01 in 1.20 in (1990)
Month to date precipitation 0.34 0.40  
Year to date precipitation 0.37 1.12  
Snow  
Snow 0.00 in 0.00 in 8.10 in (1915)
Month to date snowfall 4.7 2.4  
Since 1 July snowfall 12.1 13.5  
Snow Depth 0.00 in    
Sea Level Pressure  
Sea Level Pressure 29.86 in    
Wind  
Wind Speed 15 mph (NW)    
Max Wind Speed 41 mph    
Max Gust Speed 51 mph    
Visibility 9 miles    
Events      
T = Trace of Precipitation, MM = Missing Value Source: NWS Daily Summary

Daily Weather History Graph

Daily Weather History Graph

Search for Another Location

Airport or City:

Trip Planner

Search our weather history database for the weather conditions in past years. The results will help you decide how hot, cold, wet, or windy it might be!

Date:

Astronomy

Feb. 20, 2014 Rise Set
Actual Time 7:27 AM CST 6:34 PM CST
Civil Twilight 7:01 AM CST 6:59 PM CST
Nautical Twilight 6:32 AM CST 7:29 PM CST
Astronomical Twilight 6:02 AM CST 7:59 PM CST
Moon No Moon Rise 10:24 AM CST (2/20)
Length of Visible Light 11h 58m
Length of Day
11h 06m
Waning Gibbous, 70% of the Moon is Illuminated
Feb 20
Waning Gibbous
Feb 22
Last Quarter
Mar 1
New
Mar 8
First Quarter
Mar 16
Full

Hourly Weather History & Observations

Time (CST) Temp. Windchill Dew Point Humidity Pressure Visibility Wind Dir Wind Speed Gust Speed Precip Events Conditions
12:53 AM 59.0 °F - 14.0 °F 17% 29.40 in 10.0 mi SW 27.6 mph 39.1 mph N/A   Clear
1:53 AM 59.0 °F - 14.0 °F 17% 29.40 in 10.0 mi WSW 26.5 mph 34.5 mph N/A   Mostly Cloudy
2:53 AM 54.0 °F - 16.0 °F 22% 29.45 in 10.0 mi West 16.1 mph 23.0 mph N/A   Overcast
3:53 AM 55.9 °F - 12.9 °F 18% 29.47 in 10.0 mi West 25.3 mph 40.3 mph N/A   Partly Cloudy
4:34 AM 48.0 °F - 28.0 °F 46% 29.66 in 1.5 mi NNW 40.3 mph 50.6 mph N/A   Haze
4:39 AM 45.0 °F 34.1 °F 28.0 °F 52% 29.67 in 0.8 mi NNW 38.0 mph 51.8 mph N/A   Haze
4:45 AM 44.1 °F 34.0 °F 28.0 °F 53% 29.69 in 1.2 mi NNW 29.9 mph 51.8 mph N/A   Haze
4:53 AM 43.0 °F 32.9 °F 28.0 °F 56% 29.61 in 2.5 mi NNW 27.6 mph 41.4 mph N/A   Haze
5:00 AM 42.1 °F 31.1 °F 28.0 °F 58% 29.71 in 4.0 mi NNW 31.1 mph 44.9 mph N/A   Haze
5:18 AM 41.0 °F 30.2 °F 28.0 °F 60% 29.74 in 6.0 mi NNW 27.6 mph 43.7 mph N/A   Haze
5:53 AM 39.0 °F 27.8 °F 28.0 °F 65% 29.71 in 10.0 mi NNW 26.5 mph 40.3 mph N/A   Overcast
6:13 AM 37.9 °F 27.1 °F 27.0 °F 65% 29.80 in 10.0 mi NW 23.0 mph 33.4 mph N/A   Scattered Clouds
6:31 AM 37.9 °F 26.3 °F 28.0 °F 68% 29.82 in 10.0 mi NNW 26.5 mph 33.4 mph N/A   Mostly Cloudy
6:53 AM 37.0 °F 25.1 °F 28.0 °F 70% 29.79 in 10.0 mi NNW 26.5 mph 36.8 mph N/A   Overcast
7:27 AM 34.0 °F 21.5 °F 26.1 °F 73% 29.87 in 10.0 mi NNW 24.2 mph 35.7 mph N/A   Scattered Clouds
7:53 AM 34.0 °F 25.0 °F 26.1 °F 73% 29.86 in 10.0 mi North 12.7 mph - N/A   Scattered Clouds
8:04 AM 35.1 °F 25.9 °F 27.0 °F 72% 29.91 in 10.0 mi NNW 13.8 mph 21.9 mph N/A   Mostly Cloudy
8:53 AM 36.0 °F 25.3 °F 26.1 °F 67% 29.93 in 10.0 mi NNW 19.6 mph 27.6 mph N/A   Mostly Cloudy
9:05 AM 36.0 °F 25.3 °F 25.0 °F 64% 29.97 in 10.0 mi NNW 19.6 mph 31.1 mph N/A   Scattered Clouds
9:53 AM 39.0 °F 28.5 °F 23.0 °F 53% 29.96 in 10.0 mi North 23.0 mph 32.2 mph N/A   Partly Cloudy
10:53 AM 42.1 °F 33.9 °F 19.0 °F 40% 29.97 in 10.0 mi NNW 17.3 mph 29.9 mph N/A   Clear
11:53 AM 45.0 °F 36.6 °F 10.9 °F 25% 29.97 in 10.0 mi North 21.9 mph 32.2 mph N/A   Clear
12:53 PM 48.0 °F - 6.1 °F 18% 29.97 in 10.0 mi North 18.4 mph 26.5 mph N/A   Unknown
1:53 PM 48.0 °F - 6.1 °F 18% 29.97 in 10.0 mi NW 13.8 mph 25.3 mph N/A   Overcast
2:53 PM 46.9 °F - 10.0 °F 22% 29.99 in 10.0 mi WNW 13.8 mph 27.6 mph N/A   Mostly Cloudy
3:53 PM 48.0 °F - 10.0 °F 22% 29.99 in 10.0 mi West 15.0 mph 21.9 mph N/A   Clear
4:53 PM 48.0 °F - 9.0 °F 21% 30.01 in 10.0 mi NW 8.1 mph - N/A   Clear
5:53 PM 46.9 °F - 9.0 °F 21% 30.03 in 10.0 mi West 6.9 mph - N/A   Clear
6:53 PM 43.0 °F - 10.0 °F 26% 30.04 in 10.0 mi Calm Calm - N/A   Clear
7:53 PM 41.0 °F - 10.0 °F 28% 30.08 in 10.0 mi Calm Calm - N/A   Clear
8:53 PM 37.9 °F 34.4 °F 10.0 °F 32% 30.11 in 10.0 mi ENE 4.6 mph - N/A   Clear
9:53 PM 37.0 °F 32.4 °F 10.9 °F 34% 30.11 in 10.0 mi ENE 5.8 mph - N/A   Clear
10:53 PM 32.0 °F 25.6 °F 9.0 °F 38% 30.11 in 10.0 mi ESE 6.9 mph - N/A   Clear
11:53 PM 28.0 °F 21.7 °F 7.0 °F 41% 30.11 in 10.0 mi South 5.8 mph - N/A   Clear